Weather History for Bloomington, IL

Change the Weather History Date:

Tuesday, August 20, 2013

  Actual Average Record
Temperature  
Mean Temperature 74 °F -  
Max Temperature 86 °F 81 °F 93 °F (2010)
Min Temperature 63 °F 52 °F 52 °F (1978)
Cooling Degree Days 10    
Growing Degree Days 24 (Base 50)    
Moisture  
Dew Point 65 °F    
Average Humidity 74    
Maximum Humidity 90    
Minimum Humidity 47    
Precipitation  
Precipitation 0.00 in - - ()
Sea Level Pressure  
Sea Level Pressure 30.08 in    
Wind  
Wind Speed 6 mph (South)    
Max Wind Speed 10 mph    
Max Gust Speed -    
Visibility 10 miles    
Events Rain    
Averages and records for this station are not official NWS values.
T = Trace of Precipitation, MM = Missing Value Source: NWS Daily Summary

Daily Weather History Graph

Daily Weather History Graph

Search for Another Location

Airport:

Trip Planner

Search our weather history database for the weather conditions in past years. The results will help you decide how hot, cold, wet, or windy it might be!

Date:

Astronomy

Aug. 20, 2013 Rise Set
Actual Time 6:11 AM CDT 7:45 PM CDT
Civil Twilight 5:42 AM CDT 8:14 PM CDT
Nautical Twilight 5:07 AM CDT 8:49 PM CDT
Astronomical Twilight 4:30 AM CDT 9:25 PM CDT
Moon 7:16 PM CDT (8/20) 5:41 AM CDT (8/20)
Length of Visible Light 14h 31m
Length of Day
13h 34m
Full, 100% of the Moon is Illuminated
Aug 20
Full
Aug 20
Full
Aug 28
Last Quarter
Sep 5
New
Sep 12
First Quarter

Hourly Weather History & Observations

Time (CDT) Temp. Heat Index Dew Point Humidity Pressure Visibility Wind Dir Wind Speed Gust Speed Precip Events Conditions
12:56 AM 65.8 °F - 63.0 °F 90% 30.07 in 10.0 mi SSW 4.6 mph - N/A   Clear
1:56 AM 64.9 °F - 61.9 °F 90% 30.07 in 9.0 mi South 8.1 mph - N/A   Clear
2:56 AM 64.9 °F - 61.9 °F 90% 30.06 in 8.0 mi South 5.8 mph - N/A   Clear
3:56 AM 65.8 °F - 61.9 °F 87% 30.06 in 9.0 mi South 4.6 mph - N/A   Clear
4:56 AM 64.9 °F - 61.0 °F 87% 30.07 in 10.0 mi SSW 4.6 mph - N/A   Clear
5:56 AM 63.9 °F - 61.0 °F 90% 30.09 in 8.0 mi SSW 4.6 mph - N/A   Clear
6:56 AM 63.9 °F - 61.0 °F 90% 30.11 in 6.0 mi South 5.8 mph - N/A   Clear
7:56 AM 70.0 °F - 64.9 °F 84% 30.12 in 8.0 mi South 8.1 mph - N/A   Clear
8:56 AM 73.9 °F - 65.8 °F 76% 30.13 in 10.0 mi SSW 8.1 mph - N/A   Clear
9:56 AM 77.9 °F - 66.9 °F 69% 30.13 in 10.0 mi SSW 8.1 mph - N/A   Clear
10:56 AM 81.0 °F 83.3 °F 66.9 °F 62% 30.12 in 10.0 mi South 9.2 mph - N/A   Clear
11:56 AM 81.9 °F 83.9 °F 65.8 °F 58% 30.12 in 10.0 mi South 6.9 mph - N/A   Scattered Clouds
12:56 PM 83.8 °F 86.0 °F 65.8 °F 55% 30.10 in 10.0 mi SSW 8.1 mph - 0.00 in Rain Light Rain
1:56 PM 81.9 °F 83.9 °F 65.8 °F 58% 30.09 in 10.0 mi SSW 5.8 mph - 0.00 in   Scattered Clouds
2:56 PM 83.8 °F 85.6 °F 64.9 °F 53% 30.07 in 10.0 mi South 8.1 mph - N/A   Scattered Clouds
3:56 PM 86.0 °F 87.1 °F 63.9 °F 47% 30.06 in 10.0 mi South 9.2 mph - N/A   Scattered Clouds
4:56 PM 83.8 °F 85.6 °F 64.9 °F 53% 30.05 in 10.0 mi South 10.4 mph - N/A   Scattered Clouds
5:56 PM 82.9 °F 85.0 °F 65.8 °F 56% 30.05 in 10.0 mi SSW 8.1 mph - N/A   Scattered Clouds
6:56 PM 79.9 °F - 68.0 °F 67% 30.05 in 10.0 mi SSW 6.9 mph - N/A   Clear
7:56 PM 74.8 °F - 66.9 °F 76% 30.05 in 10.0 mi South 5.8 mph - N/A   Clear
8:56 PM 72.9 °F - 64.9 °F 76% 30.06 in 10.0 mi SSE 6.9 mph - N/A   Clear
9:56 PM 70.9 °F - 65.8 °F 84% 30.07 in 10.0 mi South 4.6 mph - N/A   Clear
10:56 PM 68.9 °F - 64.9 °F 87% 30.08 in 10.0 mi South 3.5 mph - N/A   Clear
11:56 PM 68.0 °F - 64.9 °F 90% 30.07 in 10.0 mi SSW 4.6 mph - N/A   Clear